Weather in Gorny Ruchey

Russia / Vologda Oblast     60°42′12″N   35°43′25″E
temp.,
°C
wind,
m/s
gust,
m/s
humid.,
%
clouds,
%
prec.,
mm/h
press.,
hPa
HPBL,
m
7 may, fri
fri700:00+5sw41194100 0.2 9941155
03:00+5ssw61292100 0.6 996916
06:00+5ssw51192100 0.4 9981131
09:00+5sw5109098 0.6 10001117
12:00+7ssw597799 0.2 10021238
15:00+8sw587795 0.9 10041236
18:00+8sw377761 0.6 10041021
21:00+4s239384 0.7 100649
8 may, sat
sat800:00+3s269533 0.0 1007139
03:00+2s2693100 0.0 1007127
06:00+5sse3987100 0.0 1005277
09:00+7sse51385100 0.4 10041119
12:00+6sse51192100 0.5 10031152
15:00+8s4988100 0.6 10031259
18:00+4wsw4893100 0.4 1005581
21:00+4w2695100 0.4 1007450
9 may, sun
sun900:00+3wnw3698100 0.1 1008544
03:00+3wnw2698100 0.2 1009448
06:00+3wnw3792100 0.0 1011460
09:00+4nw358453 0.0 1013620
12:00+9nnw36485 0.0 10141552
15:00+10nnw354492 0.0 10151823
18:00+10wnw45465 0.1 10171552
21:00+4sw26655 0.1 101998
10 may, mon
mon1000:00+3ssw256934 0.0 102173
03:00+2s3107091 0.0 1022189
06:00+5s4116990 0.0 1022325
09:00+10ssw595485 0.0 1022935
12:00+8s51182100 0.4 1023925
15:00+9ssw41181100 0.5 1023520
18:00+14sw3969100 0.0 1023666
21:00+13ssw3118091 0.0 1024325
11 may, tue
tue1100:00+13ssw51479100 0.0 1025441
03:00+12sw41380100 0.0 1025378
06:00+12sw4137846 0.0 1026432
09:00+17sw5105898 0.0 1027758
12:00+20sw58430 0.0 10271304
15:00+21sw583931 0.0 10261588
18:00+20sw4847100 0.0 10261263
21:00+14ssw2272100 0.0 102627